Location: Newark
(34.6283°N, 36.0776°E)
Time: 00:45:17
(UTC+00:00)

A-11 Canister half - Pass Details

Date: 20 September 2019
Orbit: 1527 x 1682 km, 47.3° (Epoch: 20 October)

Event Time Altitude Azimuth Distance (km) Brightness Sun altitude
Rises 10:44:13 0° 289° (WNW) 4,877 11.7 52.2°
Reaches altitude 10° 10:49:17 10° 268° (W) 3,911 11.6 51.6°
Maximum altitude 10:54:09 15° 238° (WSW) 3,551 11.8 51.1°
Drops below altitude 10° 10:59:04 10° 208° (SSW) 3,931 12.0 50.5°
Sets 11:04:15 0° 186° (S) 4,917 12.2 49.8°
